Regional Weather Roundup
Issued by NWS Sioux Falls, SD

Home | Current Version | Previous Version | Text Only | Print | Product List | Glossary On
Versions: 1 2 3 4 5 6 7 8 9 10 11 12 13 14 15 16 17 18 19 20 21 22 23 24 25 26 27 28 29 30 31 32 33 34 35 36 37 38 39 40 41 42 43 44 45 46 47 48 49 50
000
ASUS43 KFSD 252102
RWRFSD

WEATHER ROUNDUP FOR SE SOUTH DAKOTA/SW MINNESOTA/NW IOWA
NATIONAL WEATHER SERVICE SIOUX FALLS SD
300 PM CST SAT FEB 25 2017

NOTE: "FAIR" INDICATES FEW OR NO CLOUDS BELOW 12,000 FEET WITH NO
SIGNIFICANT WEATHER AND OR OBSTRUCTIONS TO VISIBILITY.


SDZ038>040-050-052>070-252200-
SOUTHEAST SOUTH DAKOTA

CITY           SKY/WX    TMP DP  RH WIND       PRES   REMARKS
BROOKINGS      CLOUDY    30  17  58 S16       29.85F WCI  19
CHAMBERLAIN    CLOUDY    37  23  56 SW13      29.83F
HURON          PTSUNNY   38  18  44 S7        29.82F
MADISON        MOCLDY    28  19  69 SW17      29.86F WCI  16
MITCHELL       SUNNY     33  21  61 S18       29.87F WCI  22
SIOUX FALLS    PTSUNNY   27  17  66 S17       29.91F WCI  14
WINNER         FAIR      34  22  61 W10       29.84F WCI  26
YANKTON        MOSUNNY   28  16  59 S14       29.92F WCI  17
$$

MNZ071-072-080-081-089-090-097-098-252200-
SOUTHWEST MINNESOTA

CITY           SKY/WX    TMP DP  RH WIND       PRES   REMARKS
FAIRMONT       CLOUDY    28  18  66 SW13      29.96F WCI  17
JACKSON        CLOUDY    27  19  74 SW15      29.94F WCI  15
LUVERNE        CLOUDY    28  18  64 S13       29.92F WCI  18
MARSHALL       MOSUNNY   31  19  61 SW16      29.89F WCI  20
MONTEVIDEO     MOSUNNY   37  19  48 W14       29.88F
PIPESTONE      CLOUDY    28  16  59 SW14G20   29.88F WCI  17
REDWOOD FALLS  CLOUDY    35  16  45 SW14      29.89F WCI  26
TRACY          CLOUDY    31  19  62 SW16G25   29.90F WCI  20
WINDOM         MOSUNNY   28  19  69 SW18G24   29.92F WCI  16
WORTHINGTON    CLOUDY    26  18  71 SW18      29.92F WCI  13
$$

IAZ001>003-012>014-020>022-031-032-NEZ013-014-SDZ071-252200-
NORTHWEST IOWA

CITY           SKY/WX    TMP DP  RH WIND       PRES   REMARKS
CHEROKEE       CLOUDY    27  16  62 SW12      29.99F WCI  17
DENISON        SUNNY     27  16  63 SW9       30.00F WCI  17
ESTHERVILLE    CLOUDY    24  18  77 SW14      29.95F WCI  12
LE MARS        CLOUDY    28  18  64 S13       29.98F WCI  18
SHELDON        CLOUDY    27  21  80 SW15      29.93F WCI  15
SIOUX CITY     SUNNY     30  15  53 S13       29.99F WCI  20
SPENCER        CLOUDY    25  18  74 SW13      29.96F WCI  14
STORM LAKE       N/A     25  16  68 SW9       29.98F WCI  15
$$

ABBREVIATIONS USED IN REMARKS
   TC - TEMPERATURE IN CELSIUS
  WCI - WIND CHILL INDEX
   HX - HEAT INDEX
  VSB - VISIBILITY





USA.gov is the U.S. government's official web portal to all federal, state and local government web resources and services.